| time (UTC) | temp F | wind direction | speed MPH | gust MPH | rain 1hr in | rain 24hr in | rain mn in | humidity % | barometer mb |
| 20260902215056 | 73 | 159 | 24.0 | 0.0 | 0.00 | 0.00 | 0.02 | 19 | 1001.6 |
| 20260902214501 | 73 | 177 | 23.0 | 0.0 | 0.00 | 0.00 | 0.02 | 20 | 1001.5 |
| 20260902214013 | 73 | 215 | 20.0 | 0.0 | 0.00 | 0.00 | 0.02 | 20 | 1001.4 |
| 20260902213530 | 73 | 203 | 21.0 | 0.0 | 0.00 | 0.00 | 0.02 | 22 | 1001.3 |
| 20260902213050 | 73 | 186 | 22.0 | 0.0 | 0.00 | 0.00 | 0.02 | 22 | 1001.2 |
| 20260902212552 | 72 | 135 | 22.0 | 0.0 | 0.00 | 0.00 | 0.02 | 23 | 1001.3 |
| 20260902212016 | 71 | 155 | 23.0 | 0.0 | 0.00 | 0.00 | 0.02 | 24 | 1001.3 |
| 20260902211535 | 72 | 168 | 23.0 | 0.0 | 0.00 | 0.00 | 0.02 | 23 | 1001.4 |
| 20260902211052 | 73 | 195 | 24.0 | 0.0 | 0.00 | 0.00 | 0.02 | 21 | 1001.3 |
| 20260902210511 | 73 | 186 | 24.0 | 0.0 | 0.00 | 0.00 | 0.02 | 21 | 1001.1 |
| 20260902210036 | 73 | 194 | 23.0 | 0.0 | 0.00 | 0.00 | 0.02 | 22 | 1001.2 |
| 20260902205543 | 73 | 175 | 21.0 | 0.0 | 0.00 | 0.00 | 0.02 | 21 | 1001.2 |
| 20260902205001 | 73 | 171 | 23.0 | 0.0 | 0.00 | 0.00 | 0.02 | 21 | 1001.2 |
| 20260902204517 | 73 | 222 | 22.0 | 0.0 | 0.00 | 0.00 | 0.02 | 21 | 1001.2 |
| 20260902204033 | 73 | 208 | 21.0 | 0.0 | 0.00 | 0.00 | 0.02 | 19 | 1001.2 |
| 20260902203559 | 72 | 179 | 22.0 | 0.0 | 0.00 | 0.00 | 0.02 | 20 | 1001.3 |
| 20260902203001 | 73 | 187 | 22.0 | 0.0 | 0.00 | 0.00 | 0.02 | 20 | 1000.9 |
| 20260902202522 | 72 | 198 | 24.0 | 0.0 | 0.00 | 0.00 | 0.02 | 20 | 1001.1 |
| 20260902202031 | 73 | 180 | 26.0 | 0.0 | 0.00 | 0.00 | 0.02 | 19 | 1000.9 |
| 20260902201546 | 73 | 205 | 27.0 | 0.0 | 0.00 | 0.00 | 0.02 | 19 | 1000.8 |
| 20260902201006 | 73 | 208 | 26.0 | 0.0 | 0.00 | 0.00 | 0.02 | 19 | 1000.6 |
| 20260902200527 | 73 | 176 | 25.0 | 0.0 | 0.00 | 0.00 | 0.02 | 19 | 1000.6 |
| 20260902200040 | 73 | 150 | 25.0 | 0.0 | 0.00 | 0.00 | 0.02 | 18 | 1000.8 |
| 20260902195555 | 73 | 167 | 25.0 | 0.0 | 0.00 | 0.00 | 0.02 | 19 | 1000.8 |
| 20260902195003 | 73 | 190 | 25.0 | 0.0 | 0.00 | 0.00 | 0.02 | 19 | 1000.6 |
| 20260902194524 | 73 | 188 | 26.0 | 0.0 | 0.00 | 0.00 | 0.02 | 19 | 1000.8 |
| 20260902194035 | 73 | 208 | 27.0 | 0.0 | 0.00 | 0.00 | 0.02 | 19 | 1000.7 |
| 20260902193552 | 73 | 134 | 27.0 | 0.0 | 0.00 | 0.00 | 0.02 | 19 | 1000.6 |
| 20260902193102 | 73 | 173 | 25.0 | 0.0 | 0.00 | 0.00 | 0.02 | 19 | 1000.9 |
| 20260902192513 | 73 | 180 | 25.0 | 0.0 | 0.00 | 0.00 | 0.02 | 18 | 1000.8 |
| 20260902192026 | 73 | 186 | 26.0 | 0.0 | 0.00 | 0.00 | 0.02 | 19 | 1000.9 |
| 20260902191533 | 73 | 204 | 24.0 | 0.0 | 0.00 | 0.00 | 0.02 | 19 | 1001.0 |
| 20260902191044 | 73 | 171 | 24.0 | 0.0 | 0.00 | 0.00 | 0.02 | 19 | 1000.9 |
| 20260902190555 | 73 | 184 | 25.0 | 0.0 | 0.00 | 0.00 | 0.02 | 19 | 1000.7 |
| 20260902190010 | 73 | 167 | 24.0 | 0.0 | 0.00 | 0.00 | 0.02 | 23 | 1000.8 |
| 20260902185527 | 73 | 178 | 23.0 | 0.0 | 0.00 | 0.00 | 0.02 | 23 | 1000.7 |
| 20260902185042 | 73 | 225 | 23.0 | 0.0 | 0.00 | 0.00 | 0.02 | 26 | 1000.9 |
| 20260902184547 | 73 | 150 | 25.0 | 0.0 | 0.00 | 0.00 | 0.02 | 25 | 1000.8 |
| 20260902184100 | 72 | 180 | 26.0 | 0.0 | 0.00 | 0.00 | 0.02 | 26 | 1000.9 |
| 20260902183513 | 72 | 159 | 25.0 | 0.0 | 0.00 | 0.00 | 0.02 | 27 | 1000.9 |
| 20260902183028 | 72 | 168 | 24.0 | 0.0 | 0.00 | 0.00 | 0.02 | 23 | 1000.9 |
| 20260902182543 | 72 | 181 | 25.0 | 0.0 | 0.00 | 0.00 | 0.02 | 26 | 1001.1 |
| 20260902182056 | 72 | 186 | 23.0 | 0.0 | 0.00 | 0.00 | 0.02 | 27 | 1001.3 |
| 20260902181504 | 72 | 182 | 21.0 | 0.0 | 0.00 | 0.00 | 0.02 | 29 | 1001.4 |
| 20260902181020 | 73 | 178 | 21.0 | 0.0 | 0.00 | 0.00 | 0.02 | 30 | 1001.5 |
| 20260902180542 | 72 | 175 | 22.0 | 0.0 | 0.00 | 0.00 | 0.02 | 29 | 1001.2 |
| 20260902180054 | 72 | 175 | 21.0 | 0.0 | 0.00 | 0.00 | 0.02 | 30 | 1001.3 |
| 20260902175509 | 72 | 163 | 19.0 | 0.0 | 0.00 | 0.00 | 0.02 | 31 | 1001.3 |
| 20260902175029 | 72 | 198 | 18.0 | 0.0 | 0.00 | 0.00 | 0.02 | 32 | 1001.5 |
| 20260902174537 | 71 | 123 | 18.0 | 0.0 | 0.00 | 0.00 | 0.02 | 35 | 1001.4 |
| 20260902174052 | 71 | 163 | 18.0 | 0.0 | 0.00 | 0.00 | 0.02 | 37 | 1001.5 |
| 20260902173557 | 71 | 170 | 20.0 | 0.0 | 0.00 | 0.00 | 0.02 | 35 | 1001.7 |
| 20260902173015 | 70 | 195 | 23.0 | 0.0 | 0.00 | 0.00 | 0.02 | 36 | 1001.7 |
| 20260902172531 | 71 | 165 | 22.0 | 0.0 | 0.00 | 0.00 | 0.02 | 35 | 1001.7 |
| 20260902172037 | 71 | 183 | 21.0 | 0.0 | 0.00 | 0.00 | 0.02 | 35 | 1001.5 |
| 20260902171555 | 70 | 174 | 20.0 | 0.0 | 0.00 | 0.00 | 0.02 | 37 | 1001.7 |
| 20260902171012 | 70 | 144 | 20.0 | 0.0 | 0.00 | 0.00 | 0.02 | 36 | 1001.6 |
| 20260902170529 | 70 | 205 | 20.0 | 0.0 | 0.00 | 0.00 | 0.02 | 38 | 1001.8 |
| 20260902170042 | 70 | 159 | 18.0 | 0.0 | 0.00 | 0.00 | 0.02 | 37 | 1001.9 |
| 20260902165554 | 69 | 200 | 16.0 | 0.0 | 0.00 | 0.00 | 0.02 | 42 | 1001.8 |
| 20260902165103 | 69 | 171 | 15.0 | 0.0 | 0.00 | 0.00 | 0.02 | 42 | 1001.7 |
| 20260902164515 | 70 | 173 | 16.0 | 0.0 | 0.00 | 0.00 | 0.02 | 43 | 1001.7 |
| 20260902164026 | 69 | 141 | 16.0 | 0.0 | 0.00 | 0.00 | 0.02 | 43 | 1001.5 |
| 20260902163532 | 69 | 157 | 16.0 | 0.0 | 0.00 | 0.00 | 0.02 | 45 | 1001.6 |
| 20260902163039 | 69 | 169 | 16.0 | 0.0 | 0.00 | 0.00 | 0.02 | 44 | 1001.7 |
| 20260902162550 | 68 | 121 | 15.0 | 0.0 | 0.00 | 0.00 | 0.02 | 45 | 1001.5 |
| 20260902162057 | 67 | 169 | 14.0 | 0.0 | 0.00 | 0.00 | 0.02 | 48 | 1001.8 |
| 20260902161505 | 66 | 198 | 15.0 | 0.0 | 0.00 | 0.00 | 0.02 | 52 | 1001.9 |
| 20260902161024 | 66 | 164 | 16.0 | 0.0 | 0.00 | 0.00 | 0.02 | 52 | 1002.1 |
| 20260902160547 | 66 | 178 | 16.0 | 0.0 | 0.00 | 0.00 | 0.02 | 53 | 1002.1 |
| 20260902160055 | 66 | 175 | 16.0 | 0.0 | 0.00 | 0.00 | 0.02 | 53 | 1002.1 |
| 20260902155512 | 66 | 186 | 16.0 | 0.0 | 0.00 | 0.00 | 0.02 | 54 | 1001.9 |
| 20260902155022 | 65 | 180 | 15.0 | 0.0 | 0.00 | 0.00 | 0.02 | 53 | 1001.9 |
| 20260902154536 | 65 | 198 | 15.0 | 0.0 | 0.00 | 0.00 | 0.02 | 54 | 1002.0 |
| 20260902154041 | 64 | 193 | 16.0 | 0.0 | 0.00 | 0.00 | 0.02 | 55 | 1001.9 |
| 20260902153552 | 64 | 165 | 15.0 | 0.0 | 0.00 | 0.00 | 0.02 | 58 | 1002.0 |
| 20260902153007 | 63 | 173 | 14.0 | 0.0 | 0.00 | 0.00 | 0.02 | 60 | 1002.0 |
| 20260902152521 | 62 | 182 | 15.0 | 0.0 | 0.00 | 0.00 | 0.02 | 61 | 1002.1 |
| 20260902152036 | 62 | 174 | 15.0 | 0.0 | 0.00 | 0.00 | 0.02 | 63 | 1002.1 |
| 20260902151547 | 61 | 191 | 14.0 | 0.0 | 0.00 | 0.00 | 0.02 | 64 | 1002.2 |
| 20260902151101 | 61 | 175 | 13.0 | 0.0 | 0.00 | 0.00 | 0.02 | 65 | 1002.2 |
| 20260902150512 | 61 | 196 | 14.0 | 0.0 | 0.00 | 0.00 | 0.02 | 65 | 1002.3 |
| 20260902150022 | 61 | 163 | 14.0 | 0.0 | 0.00 | 0.00 | 0.02 | 63 | 1002.3 |
| 20260902145529 | 61 | 167 | 14.0 | 0.0 | 0.00 | 0.00 | 0.02 | 63 | 1002.6 |
| 20260902145034 | 60 | 178 | 15.0 | 0.0 | 0.00 | 0.00 | 0.02 | 66 | 1002.7 |
| 20260902144545 | 60 | 163 | 16.0 | 0.0 | 0.00 | 0.00 | 0.02 | 66 | 1002.7 |
| 20260902144059 | 59 | 158 | 15.0 | 0.0 | 0.00 | 0.00 | 0.02 | 68 | 1002.7 |
| 20260902143521 | 58 | 149 | 14.0 | 0.0 | 0.00 | 0.00 | 0.02 | 71 | 1002.7 |
| 20260902143037 | 57 | 140 | 14.0 | 0.0 | 0.00 | 0.00 | 0.02 | 71 | 1002.8 |
| 20260902142554 | 56 | 171 | 14.0 | 0.0 | 0.00 | 0.00 | 0.02 | 72 | 1002.8 |
| 20260902142103 | 56 | 153 | 14.0 | 0.0 | 0.00 | 0.00 | 0.02 | 73 | 1002.7 |
| 20260902141514 | 55 | 173 | 12.0 | 0.0 | 0.00 | 0.00 | 0.02 | 74 | 1002.7 |
| 20260902141046 | 55 | 159 | 11.0 | 0.0 | 0.00 | 0.00 | 0.02 | 74 | 1002.7 |
| 20260902140605 | 55 | 161 | 11.0 | 0.0 | 0.00 | 0.00 | 0.02 | 73 | 1002.7 |
| 20260902140021 | 55 | 144 | 13.0 | 0.0 | 0.00 | 0.00 | 0.02 | 73 | 1002.6 |
| 20260902135541 | 55 | 188 | 14.0 | 0.0 | 0.00 | 0.00 | 0.02 | 73 | 1002.6 |
| 20260902135055 | 55 | 157 | 15.0 | 0.0 | 0.00 | 0.00 | 0.02 | 73 | 1002.7 |
| 20260902134513 | 55 | 169 | 14.0 | 0.0 | 0.00 | 0.00 | 0.02 | 74 | 1002.7 |
| 20260902134035 | 55 | 179 | 12.0 | 0.0 | 0.00 | 0.00 | 0.02 | 75 | 1002.7 |
| 20260902133547 | 54 | 137 | 11.0 | 0.0 | 0.00 | 0.00 | 0.01 | 77 | 1002.7 |
| 20260902133058 | 53 | 137 | 11.0 | 0.0 | 0.00 | 0.00 | 0.01 | 78 | 1002.8 |
| 20260902132504 | 53 | 138 | 11.0 | 0.0 | 0.00 | 0.00 | 0.01 | 78 | 1002.7 |
| 20260902132012 | 53 | 146 | 12.0 | 0.0 | 0.00 | 0.00 | 0.01 | 78 | 1002.7 |
| 20260902131535 | 53 | 125 | 11.0 | 0.0 | 0.00 | 0.00 | 0.01 | 78 | 1002.7 |
| 20260902131056 | 53 | 160 | 10.0 | 0.0 | 0.00 | 0.00 | 0.01 | 79 | 1002.7 |
| 20260902130512 | 53 | 189 | 11.0 | 0.0 | 0.00 | 0.00 | 0.01 | 78 | 1002.8 |
| 20260902130032 | 53 | 152 | 9.0 | 0.0 | 0.00 | 0.00 | 0.01 | 78 | 1002.7 |
| 20260902125542 | 53 | 144 | 8.0 | 0.0 | 0.00 | 0.00 | 0.01 | 79 | 1002.8 |
| 20260902125055 | 52 | 170 | 10.0 | 0.0 | 0.00 | 0.00 | 0.01 | 80 | 1002.8 |
| 20260902124509 | 53 | 148 | 12.0 | 0.0 | 0.00 | 0.00 | 0.01 | 79 | 1002.9 |
| 20260902124028 | 53 | 151 | 12.0 | 0.0 | 0.00 | 0.00 | 0.01 | 79 | 1002.9 |
| 20260902123538 | 52 | 163 | 11.0 | 0.0 | 0.00 | 0.00 | 0.01 | 79 | 1002.8 |
| 20260902123049 | 53 | 149 | 11.0 | 0.0 | 0.00 | 0.00 | 0.01 | 78 | 1002.9 |
| 20260902122504 | 53 | 152 | 12.0 | 0.0 | 0.00 | 0.00 | 0.01 | 79 | 1002.9 |
| 20260902122017 | 52 | 168 | 11.0 | 0.0 | 0.00 | 0.00 | 0.01 | 80 | 1002.9 |
| 20260902121526 | 51 | 182 | 8.0 | 0.0 | 0.00 | 0.00 | 0.01 | 82 | 1003.1 |
| 20260902121039 | 50 | 172 | 8.0 | 0.0 | 0.00 | 0.00 | 0.01 | 83 | 1003.1 |
| 20260902120556 | 51 | 210 | 9.0 | 0.0 | 0.00 | 0.00 | 0.01 | 81 | 1003.2 |
| 20260902120006 | 51 | 209 | 8.0 | 0.0 | 0.00 | 0.00 | 0.01 | 82 | 1003.2 |
| 20260902115516 | 51 | 197 | 8.0 | 0.0 | 0.00 | 0.00 | 0.01 | 84 | 1003.3 |
| 20260902115036 | 50 | 160 | 7.0 | 0.0 | 0.00 | 0.00 | 0.01 | 85 | 1003.4 |
| 20260902114615 | 49 | 196 | 7.0 | 0.0 | 0.00 | 0.00 | 0.01 | 86 | 1003.5 |
| 20260902114106 | 49 | 200 | 7.0 | 0.0 | 0.00 | 0.00 | 0.01 | 88 | 1003.7 |
| 20260902113508 | 48 | 203 | 6.0 | 0.0 | 0.00 | 0.00 | 0.01 | 89 | 1003.9 |
| 20260902113017 | 47 | 206 | 6.0 | 0.0 | 0.00 | 0.00 | 0.01 | 89 | 1003.9 |
| 20260902112538 | 47 | 204 | 6.0 | 0.0 | 0.00 | 0.00 | 0.01 | 89 | 1004.0 |
| 20260902112049 | 47 | 205 | 6.0 | 0.0 | 0.00 | 0.00 | 0.01 | 89 | 1004.0 |
| 20260902111510 | 47 | 202 | 7.0 | 0.0 | 0.00 | 0.00 | 0.01 | 89 | 1004.1 |
| 20260902111019 | 47 | 205 | 6.0 | 0.0 | 0.00 | 0.00 | 0.01 | 89 | 1004.1 |
| 20260902110534 | 47 | 226 | 5.0 | 0.0 | 0.00 | 0.00 | 0.01 | 89 | 1004.3 |
| 20260902110050 | 47 | 235 | 4.0 | 0.0 | 0.00 | 0.00 | 0.01 | 87 | 1004.3 |
| 20260902105557 | 48 | 196 | 3.0 | 0.0 | 0.00 | 0.00 | 0.01 | 86 | 1004.4 |
| 20260902105003 | 48 | 179 | 1.0 | 0.0 | 0.00 | 0.00 | 0.01 | 86 | 1004.4 |
| 20260902104532 | 49 | 179 | 2.0 | 0.0 | 0.00 | 0.00 | 0.01 | 87 | 1004.4 |
| 20260902104045 | 48 | 179 | 4.0 | 0.0 | 0.00 | 0.00 | 0.01 | 88 | 1004.5 |
| 20260902103555 | 48 | 179 | 4.0 | 0.0 | 0.00 | 0.00 | 0.01 | 88 | 1004.4 |
| 20260902103019 | 48 | 179 | 5.0 | 0.0 | 0.00 | 0.00 | 0.01 | 87 | 1004.5 |
| 20260902102542 | 48 | 179 | 3.0 | 0.0 | 0.00 | 0.00 | 0.01 | 86 | 1004.5 |
| 20260902102051 | 48 | 178 | 3.0 | 0.0 | 0.00 | 0.00 | 0.01 | 86 | 1004.5 |
| 20260902101508 | 48 | 178 | 4.0 | 0.0 | 0.00 | 0.00 | 0.01 | 87 | 1004.5 |
| 20260902101025 | 48 | 178 | 5.0 | 0.0 | 0.00 | 0.00 | 0.01 | 87 | 1004.6 |
| 20260902100546 | 48 | 177 | 5.0 | 0.0 | 0.00 | 0.00 | 0.01 | 88 | 1004.6 |
| 20260902100013 | 48 | 164 | 5.0 | 0.0 | 0.00 | 0.00 | 0.01 | 88 | 1004.7 |
| 20260902095523 | 48 | 166 | 4.0 | 0.0 | 0.00 | 0.00 | 0.01 | 88 | 1004.8 |
| 20260902095031 | 47 | 188 | 4.0 | 0.0 | 0.00 | 0.00 | 0.01 | 88 | 1004.9 |
| 20260902094542 | 47 | 222 | 4.0 | 0.0 | 0.00 | 0.00 | 0.01 | 88 | 1004.9 |
| 20260902094102 | 47 | 222 | 3.0 | 0.0 | 0.00 | 0.00 | 0.01 | 87 | 1005.0 |
| 20260902093515 | 48 | 222 | 3.0 | 0.0 | 0.00 | 0.00 | 0.01 | 87 | 1005.1 |
| 20260902093029 | 48 | 222 | 3.0 | 0.0 | 0.00 | 0.00 | 0.01 | 86 | 1005.1 |
| 20260902092541 | 49 | 222 | 3.0 | 0.0 | 0.00 | 0.00 | 0.01 | 85 | 1005.1 |
| 20260902092052 | 49 | 222 | 4.0 | 0.0 | 0.00 | 0.00 | 0.01 | 85 | 1005.1 |
| 20260902091512 | 50 | 222 | 4.0 | 0.0 | 0.00 | 0.00 | 0.01 | 84 | 1005.0 |
| 20260902091027 | 50 | 222 | 4.0 | 0.0 | 0.00 | 0.00 | 0.01 | 84 | 1005.0 |
| 20260902090542 | 51 | 222 | 5.0 | 0.0 | 0.00 | 0.00 | 0.01 | 84 | 1005.0 |
| 20260902090004 | 51 | 222 | 5.0 | 0.0 | 0.00 | 0.00 | 0.01 | 84 | 1005.1 |
| 20260902085516 | 51 | 242 | 3.0 | 0.0 | 0.00 | 0.00 | 0.01 | 83 | 1005.1 |
| 20260902085028 | 52 | 306 | 3.0 | 0.0 | 0.00 | 0.00 | 0.01 | 84 | 1005.2 |
| 20260902084552 | 52 | 306 | 3.0 | 0.0 | 0.00 | 0.00 | 0.01 | 84 | 1005.3 |
| 20260902084001 | 52 | 311 | 2.0 | 0.0 | 0.00 | 0.00 | 0.01 | 83 | 1005.3 |
| 20260902083526 | 52 | 179 | 2.0 | 0.0 | 0.00 | 0.00 | 0.01 | 84 | 1005.2 |
| 20260902083040 | 52 | 179 | 2.0 | 0.0 | 0.00 | 0.00 | 0.01 | 84 | 1005.4 |
| 20260902082600 | 52 | 182 | 3.0 | 0.0 | 0.00 | 0.00 | 0.01 | 84 | 1005.4 |
| 20260902082003 | 52 | 148 | 4.0 | 0.0 | 0.00 | 0.00 | 0.01 | 84 | 1005.4 |
| 20260902081514 | 52 | 159 | 5.0 | 0.0 | 0.00 | 0.00 | 0.01 | 85 | 1005.2 |
| 20260902081029 | 51 | 204 | 4.0 | 0.0 | 0.00 | 0.00 | 0.01 | 85 | 1005.4 |
| 20260902080541 | 51 | 217 | 4.0 | 0.0 | 0.00 | 0.00 | 0.01 | 85 | 1005.4 |
| 20260902080057 | 51 | 184 | 4.0 | 0.0 | 0.00 | 0.00 | 0.01 | 84 | 1005.3 |
| 20260902075602 | 51 | 183 | 5.0 | 0.0 | 0.00 | 0.00 | 0.01 | 83 | 1005.2 |
| 20260902075007 | 51 | 184 | 6.0 | 0.0 | 0.00 | 0.00 | 0.01 | 83 | 1005.0 |
| 20260902074520 | 51 | 187 | 6.0 | 0.0 | 0.00 | 0.00 | 0.01 | 83 | 1004.8 |
| 20260902074033 | 51 | 200 | 5.0 | 0.0 | 0.00 | 0.00 | 0.01 | 82 | 1005.0 |
| 20260902073541 | 52 | 201 | 5.0 | 0.0 | 0.00 | 0.00 | 0.01 | 81 | 1004.9 |
| 20260902073107 | 52 | 205 | 5.0 | 0.0 | 0.00 | 0.00 | 0.01 | 80 | 1004.9 |
| 20260902072506 | 53 | 232 | 5.0 | 0.0 | 0.00 | 0.00 | 0.01 | 79 | 1005.0 |
| 20260902072035 | 53 | 234 | 6.0 | 0.0 | 0.00 | 0.00 | 0.01 | 79 | 1004.9 |
| 20260902071548 | 52 | 229 | 6.0 | 0.0 | 0.00 | 0.00 | 0.01 | 79 | 1005.0 |
| 20260902071056 | 52 | 209 | 5.0 | 0.0 | 0.00 | 0.00 | 0.01 | 78 | 1005.0 |
| 20260902070605 | 53 | 169 | 5.0 | 0.0 | 0.00 | 0.00 | 0.01 | 77 | 1005.1 |
| 20260902070009 | 54 | 167 | 5.0 | 0.0 | 0.00 | 0.00 | 0.01 | 76 | 1004.9 |
| 20260902065531 | 54 | 127 | 4.0 | 0.0 | 0.00 | 0.00 | 0.01 | 76 | 1004.8 |
| 20260902065051 | 55 | 243 | 5.0 | 0.0 | 0.00 | 0.00 | 0.01 | 74 | 1004.8 |
| 20260902064613 | 55 | 240 | 6.0 | 0.0 | 0.00 | 0.00 | 0.01 | 72 | 1004.7 |
| 20260902064017 | 55 | 246 | 6.0 | 0.0 | 0.00 | 0.00 | 0.00 | 72 | 1004.7 |
| 20260902063536 | 55 | 246 | 5.0 | 0.0 | 0.00 | 0.00 | 0.00 | 73 | 1004.6 |
| 20260902063046 | 56 | 248 | 6.0 | 0.0 | 0.00 | 0.00 | 0.00 | 73 | 1004.4 |
| 20260902062559 | 56 | 247 | 6.0 | 0.0 | 0.00 | 0.00 | 0.00 | 74 | 1004.9 |
| 20260902062010 | 56 | 224 | 5.0 | 0.0 | 0.00 | 0.00 | 0.00 | 72 | 1005.1 |
| 20260902061522 | 56 | 170 | 4.0 | 0.0 | 0.00 | 0.00 | 0.00 | 72 | 1004.9 |
| 20260902061042 | 56 | 148 | 6.0 | 0.0 | 0.00 | 0.00 | 0.00 | 73 | 1004.9 |
| 20260902060556 | 56 | 144 | 7.0 | 0.0 | 0.00 | 0.00 | 0.00 | 73 | 1005.2 |
| 20260902060002 | 56 | 124 | 6.0 | 0.0 | 0.00 | 0.00 | 0.01 | 72 | 1005.3 |
| 20260902055512 | 56 | 127 | 9.0 | 0.0 | 0.00 | 0.00 | 0.01 | 72 | 1005.2 |
| 20260902055034 | 56 | 146 | 13.0 | 0.0 | 0.00 | 0.00 | 0.01 | 70 | 1004.9 |
| 20260902054558 | 57 | 227 | 18.0 | 0.0 | 0.00 | 0.00 | 0.01 | 66 | 1005.4 |
| 20260902054005 | 58 | 240 | 14.0 | 0.0 | 0.00 | 0.00 | 0.01 | 63 | 1005.0 |
| 20260902053520 | 59 | 254 | 7.0 | 0.0 | 0.00 | 0.00 | 0.01 | 61 | 1004.9 |
| 20260902053044 | 59 | 184 | 8.0 | 0.0 | 0.00 | 0.00 | 0.01 | 57 | 1005.0 |
| 20260902052505 | 58 | 127 | 9.0 | 0.0 | 0.00 | 0.00 | 0.01 | 64 | 1005.0 |
| 20260902052028 | 58 | 177 | 12.0 | 0.0 | 0.00 | 0.00 | 0.00 | 63 | 1005.4 |
| 20260902051538 | 60 | 173 | 18.0 | 0.0 | 0.00 | 0.00 | 0.00 | 59 | 1005.5 |
| 20260902051049 | 62 | 124 | 21.0 | 0.0 | 0.00 | 0.00 | 0.00 | 50 | 1005.4 |
| 20260902050514 | 62 | 175 | 22.0 | 0.0 | 0.00 | 0.00 | 0.00 | 50 | 1005.1 |
| 20260902050038 | 61 | 167 | 21.0 | 0.0 | 0.00 | 0.00 | 0.00 | 51 | 1005.1 |
| 20260902045546 | 62 | 167 | 22.0 | 0.0 | 0.00 | 0.00 | 0.00 | 50 | 1005.2 |
| 20260902045100 | 62 | 130 | 21.0 | 0.0 | 0.00 | 0.00 | 0.00 | 48 | 1005.2 |
| 20260902044512 | 63 | 111 | 20.0 | 0.0 | 0.00 | 0.00 | 0.00 | 46 | 1005.4 |
| 20260902044035 | 63 | 146 | 19.0 | 0.0 | 0.00 | 0.00 | 0.00 | 45 | 1005.1 |
| 20260902043547 | 64 | 175 | 19.0 | 0.0 | 0.00 | 0.00 | 0.00 | 45 | 1004.8 |
| 20260902043058 | 64 | 184 | 16.0 | 0.0 | 0.00 | 0.00 | 0.00 | 47 | 1004.2 |
| 20260902042603 | 63 | 182 | 9.0 | 0.0 | 0.00 | 0.00 | 0.00 | 56 | 1003.9 |
| 20260902042020 | 62 | 155 | 8.0 | 0.0 | 0.00 | 0.00 | 0.00 | 56 | 1003.3 |
| 20260902041531 | 62 | 178 | 9.0 | 0.0 | 0.00 | 0.00 | 0.00 | 56 | 1003.3 |
| 20260902041053 | 61 | 188 | 8.0 | 0.0 | 0.00 | 0.00 | 0.00 | 57 | 1003.3 |
| 20260902040505 | 61 | 172 | 8.0 | 0.0 | 0.00 | 0.00 | 0.00 | 58 | 1003.4 |
| 20260902040020 | 60 | 174 | 7.0 | 0.0 | 0.00 | 0.00 | 0.00 | 58 | 1003.4 |
| 20260902035536 | 61 | 184 | 7.0 | 0.0 | 0.00 | 0.00 | 0.00 | 58 | 1003.4 |
| 20260902035015 | 61 | 198 | 8.0 | 0.0 | 0.00 | 0.00 | 0.00 | 57 | 1003.3 |
| 20260902034530 | 61 | 176 | 9.0 | 0.0 | 0.00 | 0.00 | 0.00 | 57 | 1003.2 |
| 20260902034044 | 61 | 169 | 8.0 | 0.0 | 0.00 | 0.00 | 0.00 | 57 | 1003.2 |
| 20260902033555 | 61 | 172 | 7.0 | 0.0 | 0.00 | 0.00 | 0.00 | 56 | 1003.0 |
| 20260902033010 | 61 | 183 | 7.0 | 0.0 | 0.00 | 0.00 | 0.00 | 55 | 1003.0 |
| 20260902032538 | 61 | 186 | 6.0 | 0.0 | 0.00 | 0.00 | 0.00 | 55 | 1002.9 |
| 20260902032048 | 61 | 192 | 5.0 | 0.0 | 0.00 | 0.00 | 0.00 | 54 | 1002.9 |
| 20260902031507 | 62 | 194 | 6.0 | 0.0 | 0.00 | 0.00 | 0.00 | 54 | 1003.0 |
| 20260902031028 | 62 | 198 | 6.0 | 0.0 | 0.00 | 0.00 | 0.00 | 54 | 1003.0 |
| 20260902030539 | 62 | 190 | 7.0 | 0.0 | 0.00 | 0.00 | 0.00 | 54 | 1003.0 |
| 20260902030057 | 62 | 193 | 7.0 | 0.0 | 0.00 | 0.00 | 0.00 | 53 | 1002.9 |
| 20260902025503 | 62 | 177 | 7.0 | 0.0 | 0.00 | 0.00 | 0.00 | 52 | 1003.1 |
| 20260902025018 | 63 | 161 | 7.0 | 0.0 | 0.00 | 0.00 | 0.00 | 51 | 1003.0 |
| 20260902024536 | 63 | 186 | 7.0 | 0.0 | 0.00 | 0.00 | 0.00 | 50 | 1002.9 |
| 20260902024038 | 63 | 168 | 8.0 | 0.0 | 0.00 | 0.00 | 0.00 | 50 | 1002.7 |
| 20260902023108 | 64 | 136 | 8.0 | 0.0 | 0.00 | 0.00 | 0.00 | 50 | 1002.6 |
| 20260902022601 | 64 | 167 | 7.0 | 0.0 | 0.00 | 0.00 | 0.00 | 50 | 1002.7 |
| 20260902022046 | 64 | 157 | 6.0 | 0.0 | 0.00 | 0.00 | 0.00 | 51 | 1002.7 |
| 20260902021544 | 64 | 144 | 6.0 | 0.0 | 0.00 | 0.00 | 0.00 | 51 | 1002.6 |
| 20260902021042 | 64 | 157 | 8.0 | 0.0 | 0.00 | 0.00 | 0.00 | 51 | 1002.7 |
| 20260902020552 | 65 | 145 | 9.0 | 0.0 | 0.00 | 0.00 | 0.00 | 50 | 1002.7 |
| 20260902020003 | 66 | 149 | 8.0 | 0.0 | 0.00 | 0.00 | 0.00 | 49 | 1002.6 |
| 20260902015600 | 66 | 156 | 9.0 | 0.0 | 0.00 | 0.00 | 0.00 | 49 | 1002.6 |
| 20260902015108 | 67 | 129 | 9.0 | 0.0 | 0.00 | 0.00 | 0.00 | 49 | 1002.6 |
| 20260902014553 | 67 | 173 | 9.0 | 0.0 | 0.00 | 0.00 | 0.00 | 48 | 1002.7 |
| 20260902014003 | 68 | 182 | 10.0 | 0.0 | 0.00 | 0.00 | 0.00 | 48 | 1002.5 |
| 20260902013505 | 68 | 157 | 11.0 | 0.0 | 0.00 | 0.00 | 0.00 | 47 | 1002.6 |
| 20260902013018 | 68 | 150 | 12.0 | 0.0 | 0.00 | 0.00 | 0.00 | 46 | 1002.6 |
| 20260902012521 | 69 | 155 | 14.0 | 0.0 | 0.00 | 0.00 | 0.00 | 47 | 1002.6 |
| 20260902012023 | 69 | 123 | 15.0 | 0.0 | 0.00 | 0.00 | 0.00 | 47 | 1002.8 |
| 20260902011534 | 69 | 128 | 15.0 | 0.0 | 0.00 | 0.00 | 0.00 | 47 | 1002.8 |
| 20260902011037 | 70 | 157 | 14.0 | 0.0 | 0.00 | 0.00 | 0.00 | 45 | 1002.6 |
| 20260902010543 | 70 | 127 | 14.0 | 0.0 | 0.00 | 0.00 | 0.00 | 42 | 1002.6 |
| 20260902010055 | 70 | 192 | 14.0 | 0.0 | 0.00 | 0.00 | 0.00 | 43 | 1002.6 |
| 20260902005608 | 71 | 169 | 14.0 | 0.0 | 0.00 | 0.00 | 0.00 | 44 | 1002.6 |
| 20260902005002 | 71 | 184 | 14.0 | 0.0 | 0.00 | 0.00 | 0.00 | 42 | 1002.5 |
| 20260902004501 | 72 | 169 | 14.0 | 0.0 | 0.00 | 0.00 | 0.00 | 43 | 1002.4 |
| 20260902004025 | 71 | 146 | 14.0 | 0.0 | 0.00 | 0.00 | 0.00 | 43 | 1002.5 |
| 20260902003538 | 71 | 126 | 15.0 | 0.0 | 0.00 | 0.00 | 0.00 | 44 | 1002.5 |
| 20260902003048 | 71 | 123 | 16.0 | 0.0 | 0.00 | 0.00 | 0.00 | 43 | 1002.5 |
| 20260902002554 | 71 | 140 | 15.0 | 0.0 | 0.00 | 0.00 | 0.00 | 44 | 1002.5 |
| 20260902002049 | 71 | 121 | 17.0 | 0.0 | 0.00 | 0.00 | 0.00 | 43 | 1002.4 |
| 20260902001604 | 72 | 154 | 16.0 | 0.0 | 0.00 | 0.00 | 0.00 | 42 | 1002.4 |
| 20260902001053 | 72 | 146 | 16.0 | 0.0 | 0.00 | 0.00 | 0.00 | 42 | 1002.5 |
| 20260902000551 | 72 | 130 | 17.0 | 0.0 | 0.00 | 0.00 | 0.00 | 41 | 1002.6 |
| 20260902000100 | 73 | 129 | 16.0 | 0.0 | 0.00 | 0.00 | 0.00 | 41 | 1002.3 |
| 20260901235505 | 73 | 141 | 16.0 | 0.0 | 0.00 | 0.00 | 0.00 | 40 | 1002.4 |
| 20260901235100 | 73 | 142 | 15.0 | 0.0 | 0.00 | 0.00 | 0.00 | 40 | 1002.5 |
| 20260901234504 | 73 | 127 | 13.0 | 0.0 | 0.00 | 0.00 | 0.00 | 40 | 1002.4 |
| 20260901234007 | 74 | 159 | 14.0 | 0.0 | 0.00 | 0.00 | 0.00 | 40 | 1002.3 |
| 20260901233519 | 73 | 125 | 14.0 | 0.0 | 0.00 | 0.00 | 0.00 | 40 | 1002.5 |
| 20260901233049 | 73 | 137 | 15.0 | 0.0 | 0.00 | 0.00 | 0.00 | 39 | 1002.5 |
| 20260901232523 | 73 | 138 | 15.0 | 0.0 | 0.00 | 0.00 | 0.00 | 39 | 1002.6 |
| 20260901232023 | 73 | 138 | 14.0 | 0.0 | 0.00 | 0.00 | 0.00 | 41 | 1002.7 |
| 20260901231541 | 72 | 181 | 15.0 | 0.0 | 0.00 | 0.00 | 0.00 | 40 | 1002.7 |
| 20260901231048 | 72 | 155 | 15.0 | 0.0 | 0.00 | 0.00 | 0.00 | 41 | 1002.6 |
| 20260901230559 | 72 | 120 | 15.0 | 0.0 | 0.00 | 0.00 | 0.00 | 40 | 1002.9 |
| 20260901230124 | 73 | 116 | 15.0 | 0.0 | 0.00 | 0.00 | 0.00 | 40 | 1002.9 |
| 20260901225506 | 74 | 175 | 15.0 | 0.0 | 0.00 | 0.00 | 0.00 | 38 | 1002.9 |
| 20260901225011 | 74 | 170 | 16.0 | 0.0 | 0.00 | 0.00 | 0.00 | 38 | 1002.8 |
| 20260901224603 | 74 | 149 | 15.0 | 0.0 | 0.00 | 0.00 | 0.00 | 37 | 1002.9 |
| 20260901224100 | 75 | 140 | 15.0 | 0.0 | 0.00 | 0.00 | 0.00 | 37 | 1003.2 |
| 20260901223547 | 75 | 136 | 16.0 | 0.0 | 0.00 | 0.00 | 0.00 | 36 | 1003.0 |
| 20260901223045 | 74 | 149 | 16.0 | 0.0 | 0.00 | 0.00 | 0.00 | 36 | 1003.1 |
| 20260901222540 | 75 | 184 | 15.0 | 0.0 | 0.00 | 0.00 | 0.00 | 36 | 1003.2 |
| 20260901222046 | 74 | 165 | 16.0 | 0.0 | 0.00 | 0.00 | 0.00 | 36 | 1003.3 |
| 20260901221557 | 74 | 175 | 16.0 | 0.0 | 0.00 | 0.00 | 0.00 | 37 | 1003.2 |
| 20260901221003 | 74 | 150 | 16.0 | 0.0 | 0.00 | 0.00 | 0.00 | 37 | 1003.1 |
| 20260901220516 | 74 | 98 | 17.0 | 0.0 | 0.00 | 0.00 | 0.00 | 37 | 1003.2 |
| 20260901220043 | 74 | 124 | 16.0 | 0.0 | 0.00 | 0.00 | 0.00 | 36 | 1003.2 |
| 20260901215552 | 74 | 126 | 16.0 | 0.0 | 0.00 | 0.00 | 0.00 | 36 | 1003.3 |